This is the latest recevied weather packets stored in our database for station/object KQ4LLM. If no packets are shown the sender has not sent any weather packets the latest 10 day(s).
| Time | Temp. | Humidity | Pressure | Rain* | Wind** | Luminosity | Snow |
|---|---|---|---|---|---|---|---|
| 1777575698 | 20.56° C | 70% | - | 0 mm | - | - | - |
| 1777575389 | 21.11° C | 70% | - | 0 mm | - | - | - |
| 1777575085 | 21.67° C | 69% | - | 0 mm | - | - | - |
| 1777574781 | 21.67° C | 66% | - | 0 mm | - | - | - |
| 1777574479 | 21.67° C | 64% | - | 0 mm | - | - | - |
| 1777574175 | 21.67° C | 66% | - | 0 mm | - | - | - |
| 1777573869 | 21.67° C | 67% | - | 0 mm | - | - | - |
| 1777573564 | 22.22° C | 67% | - | 0 mm | - | - | - |
| 1777573261 | 21.11° C | 68% | - | 0 mm | - | - | - |
| 1777572957 | 21.11° C | 69% | - | 0 mm | - | - | - |
| 1777572653 | 20.56° C | 69% | - | 0 mm | - | - | - |
| 1777572353 | 20.56° C | 68% | - | 0 mm | - | - | - |
| 1777572050 | 20.56° C | 70% | - | 0 mm | - | - | - |
| 1777571749 | 20.56° C | 72% | - | 0 mm | - | - | - |
| 1777571448 | 20° C | 73% | - | 0 mm | - | - | - |
| 1777571143 | 20.56° C | 71% | - | 0 mm | - | - | - |
| 1777570839 | 20.56° C | 70% | - | 0 mm | - | - | - |
| 1777570535 | 21.11° C | 63% | - | 0 mm | - | - | - |
| 1777570232 | 20.56° C | 66% | - | 0 mm | - | - | - |
| 1777569927 | 20.56° C | 69% | - | 0 mm | - | - | - |
| 1777569623 | 20° C | 66% | - | 0 mm | - | - | - |
| 1777569320 | 20° C | 69% | - | 0 mm | - | - | - |
| 1777569016 | 20.56° C | 69% | - | 0 mm | - | - | - |
| 1777568713 | 20.56° C | 69% | - | 0 mm | - | - | - |
| 1777568411 | 20.56° C | 67% | - | 0 mm | - | - | - |
* Rain latest hour (hover to see other rain measurements)
** Current wind speed in m/s (hover to see current wind gust speed)